Zurück zum Katalog

NOAA 16 DEB

AktivSSO
NORAD 41429·DEBRIS·🇺🇸 United States

Gestartet Sep 21, 2000 von Vandenberg Space Force Base

Loading…

Nächste Überflüge (nächste 24 Stunden)

TLE

AktuellSource: Space-Track

Epoche: Sep 13, 2026, 11:11 UTC

1 41429U 00055LJ  26256.46597340  .00002399  00000-0  93500-3 0  9992
2 41429  98.7062 342.9846 0017318  89.0624 271.2543 14.30569508545716

Verfolge NOAA 16 DEB in Echtzeit mit AllMySat

Download on the App Store